Regional Weather Roundup
Issued by NWS Albany, NY

Home | Current Version | Previous Version | Text Only | Print | Product List | Glossary On
Versions: 1 2 3 4 5 6 7 8 9 10 11 12 13 14 15 16 17 18 19 20 21 22 23 24 25 26 27 28 29 30 31 32 33 34 35 36 37 38 39 40 41 42 43 44 45 46 47 48 49
000
ASUS41 KALY 010910
RWRALY

NEW YORK STATE HOURLY WEATHER ROUNDUP
NATIONAL WEATHER SERVICE ALBANY NY
500 AM EDT WED OCT 01 2014

NOTE: "FAIR" INDICATES FEW OR NO CLOUDS BELOW 12,000 FEET WITH NO
SIGNIFICANT WEATHER AND/OR NO OBSTRUCTIONS TO VISIBILITY.

NYZ032-033-038>043-046>054-057>066-NYZ062>081-011000-
EAST


CITY           SKY/WX    TMP DP  RH WIND       PRES   REMARKS
ALBANY         CLOUDY    61  56  83 CALM      30.03S
GLENS FALLS    CLOUDY    61  55  81 NE6       30.03S
POUGHKEEPSIE   CLOUDY    59  55  87 N3        30.01R
NEWBURGH       CLOUDY    59  57  94 CALM      30.02S
MONTGOMERY     CLOUDY    58  55  90 N3        30.01S
WHITE PLAINS   CLOUDY    59  56  89 N7        29.99S
ISLIP          CLOUDY    60  58  92 NE9       29.96S
NEW YORK CITY  CLOUDY    62  57  83 N8        29.98S
CENTRAL PARK   CLOUDY    63  55  75 VRB7      30.02R
$$

NYZ005>009-017-018-044>046-055-056-011000-
CENTRAL


CITY           SKY/WX    TMP DP  RH WIND       PRES   REMARKS
FULTON         MOCLDY    57  55  93 CALM      30.00R FOG
SYRACUSE       MOCLDY    59  57  93 E7        30.00R
ROME           MOCLDY    57  56  96 E6        30.03R
ELMIRA         FOG       57  57 100 NE3       29.99S VSB 1
BINGHAMTON     LGT RAIN  58  57  97 SE6       30.02S FOG
MONTICELLO     CLOUDY    55  54  94 E6        30.04S
$$

NYZ026>034-041>043-011000-
NORTH


CITY           SKY/WX    TMP DP  RH WIND       PRES   REMARKS
WATERTOWN      FOG       55  51  86 NE9       30.03S VSB 3/4
FORT DRUM      NOT AVBL
MASSENA        CLOUDY    54  52  93 E8        30.09R
SARANAC LAKE   FOG       51  51 100 CALM      30.05S VSB 1/4
PLATTSBURGH    CLOUDY    53  50  89 NE7       30.08R
$$

NYZ001>004-010>016-019>021-011000-
WEST


CITY           SKY/WX    TMP DP  RH WIND       PRES   REMARKS
NIAGARA FALLS  CLOUDY    58  56  93 NE7       30.02R
BUFFALO        CLOUDY    59  55  87 N8        30.01S
DUNKIRK        CLOUDY    57  57 100 E6        30.00R FOG
JAMESTOWN      CLOUDY    55  54  94 NE3       30.01S VSB<1/4
WELLSVILLE     CLOUDY    56  55  97 CALM      30.03S FOG
ROCHESTER      CLOUDY    61  59  93 NE6       30.01S FOG
PENN YAN       FOG       59 N/A N/A CALM      30.01R VSB 1/2
$$

             KEY
       WCI = WIND CHILL INDEX
       VSB = VISIBILITY
       HX  = HEAT INDEX
$$



USA.gov is the U.S. government's official web portal to all federal, state and local government web resources and services.